Time,TemperatureF,DewpointF,PressureIn,WindDirection,WindDirectionDegrees,WindSpeedMPH,WindSpeedGustMPH,Humidity,HourlyPrecipIn,Conditions,Clouds,dailyrainin,SoftwareType,DateUTC
2013-07-12 00:01:00,73.0,36.1,29.87,SW,225,0.0,0.5,26,0.00,CLR,,0.00,WeatherDisplay:10.37,2013-07-12 04:01:00,
2013-07-12 00:06:00,73.0,36.1,29.87,SW,225,0.0,0.0,26,0.00,CLR,,0.00,WeatherDisplay:10.37,2013-07-12 04:06:00,
2013-07-12 00:11:00,72.9,36.0,29.87,SW,225,1.2,0.0,26,0.00,CLR,,0.00,WeatherDisplay:10.37,2013-07-12 04:11:00,
2013-07-12 00:16:00,72.9,36.0,29.87,SW,225,0.0,0.0,26,0.00,CLR,,0.00,WeatherDisplay:10.37,2013-07-12 04:16:00,
2013-07-12 00:21:00,72.9,36.0,29.87,WSW,248,1.2,1.6,26,0.00,CLR,,0.00,WeatherDisplay:10.37,2013-07-12 04:21:00,
2013-07-12 00:26:00,72.7,35.8,29.87,WSW,248,1.2,1.2,26,0.00,CLR,,0.00,WeatherDisplay:10.37,2013-07-12 04:26:00,
2013-07-12 00:31:00,72.7,35.8,29.87,West,270,1.2,1.2,26,0.00,CLR,,0.00,WeatherDisplay:10.37,2013-07-12 04:31:00,
2013-07-12 00:36:00,72.5,35.6,29.87,WSW,248,0.0,0.0,26,0.00,CLR,,0.00,WeatherDisplay:10.37,2013-07-12 04:36:00,
2013-07-12 00:41:00,72.3,35.5,29.87,West,270,1.2,1.2,26,0.00,CLR,,0.00,WeatherDisplay:10.37,2013-07-12 04:41:00,
2013-07-12 00:46:00,72.3,35.5,29.87,West,270,0.0,0.5,26,0.00,CLR,,0.00,WeatherDisplay:10.37,2013-07-12 04:46:00,
2013-07-12 00:51:00,72.3,35.5,29.87,NW,315,0.0,0.0,26,0.00,CLR,,0.00,WeatherDisplay:10.37,2013-07-12 04:51:00,
2013-07-12 00:56:00,72.1,35.3,29.87,NW,315,0.0,0.0,26,0.00,CLR,,0.00,WeatherDisplay:10.37,2013-07-12 04:56:00,
2013-07-12 01:01:00,72.0,35.2,29.87,NW,315,0.0,0.0,26,0.00,CLR,,0.00,WeatherDisplay:10.37,2013-07-12 05:01:00,
2013-07-12 01:06:00,72.0,35.2,29.87,NW,315,0.0,0.0,26,0.00,CLR,,0.00,WeatherDisplay:10.37,2013-07-12 05:06:00,
2013-07-12 01:11:00,72.0,35.2,29.87,NW,315,0.0,0.0,26,0.00,CLR,,0.00,WeatherDisplay:10.37,2013-07-12 05:11:00,
2013-07-12 01:16:00,72.0,35.2,29.87,WNW,292,0.0,0.0,26,0.00,CLR,,0.00,WeatherDisplay:10.37,2013-07-12 05:16:00,
2013-07-12 01:21:00,71.8,35.0,29.87,WNW,292,0.0,0.0,26,0.00,CLR,,0.00,WeatherDisplay:10.37,2013-07-12 05:21:00,
2013-07-12 01:26:00,71.8,35.0,29.87,WNW,292,0.0,0.0,26,0.00,CLR,,0.00,WeatherDisplay:10.37,2013-07-12 05:26:00,
2013-07-12 01:31:00,71.6,34.9,29.87,WNW,292,0.0,0.0,26,0.00,CLR,,0.00,WeatherDisplay:10.37,2013-07-12 05:31:00,
2013-07-12 01:36:00,71.6,35.8,29.87,NW,315,1.2,1.2,27,0.00,CLR,,0.00,WeatherDisplay:10.37,2013-07-12 05:36:00,
2013-07-12 01:41:00,71.6,34.9,29.87,NW,315,0.0,0.0,26,0.00,CLR,,0.00,WeatherDisplay:10.37,2013-07-12 05:41:00,
2013-07-12 01:46:00,71.4,34.7,29.87,NW,315,1.2,1.2,26,0.00,CLR,,0.00,WeatherDisplay:10.37,2013-07-12 05:46:00,
2013-07-12 01:51:00,71.4,35.7,29.87,NW,315,1.2,1.2,27,0.00,CLR,,0.00,WeatherDisplay:10.37,2013-07-12 05:51:00,
2013-07-12 01:56:00,71.4,34.7,29.87,NW,315,0.0,0.0,26,0.00,CLR,,0.00,WeatherDisplay:10.37,2013-07-12 05:56:00,
2013-07-12 02:01:00,71.4,34.7,29.87,NW,315,1.2,1.2,26,0.00,CLR,,0.00,WeatherDisplay:10.37,2013-07-12 06:01:00,
2013-07-12 02:06:00,71.6,34.9,29.87,NW,315,0.0,0.0,26,0.00,CLR,,0.00,WeatherDisplay:10.37,2013-07-12 06:06:00,
2013-07-12 02:11:00,71.6,34.9,29.87,NW,315,0.0,0.0,26,0.00,CLR,,0.00,WeatherDisplay:10.37,2013-07-12 06:11:00,
2013-07-12 02:16:00,71.4,34.7,29.88,NW,315,0.0,0.0,26,0.00,CLR,,0.00,WeatherDisplay:10.37,2013-07-12 06:16:00,
2013-07-12 02:21:00,71.4,35.7,29.88,NW,315,0.0,0.0,27,0.00,CLR,,0.00,WeatherDisplay:10.37,2013-07-12 06:21:00,
2013-07-12 02:26:00,71.2,34.6,29.87,NNE,22,0.2,0.2,26,0.00,CLR,,0.00,WeatherDisplay:10.37,2013-07-12 06:26:00,
2013-07-12 02:31:00,71.2,35.5,29.88,NNE,22,0.0,1.2,27,0.00,CLR,,0.00,WeatherDisplay:10.37,2013-07-12 06:31:00,
2013-07-12 02:36:00,71.2,34.6,29.88,NNE,22,0.0,0.0,26,0.00,CLR,,0.00,WeatherDisplay:10.37,2013-07-12 06:36:00,
2013-07-12 02:41:00,71.2,34.6,29.88,NNE,22,0.0,0.0,26,0.00,CLR,,0.00,WeatherDisplay:10.37,2013-07-12 06:41:00,
2013-07-12 02:46:00,71.2,34.6,29.88,NNE,22,0.0,0.0,26,0.00,CLR,,0.00,WeatherDisplay:10.37,2013-07-12 06:46:00,
2013-07-12 02:51:00,71.2,34.6,29.88,NNE,22,0.0,0.0,26,0.00,CLR,,0.00,WeatherDisplay:10.37,2013-07-12 06:51:00,
2013-07-12 02:56:00,71.2,34.6,29.88,NNE,22,0.0,0.0,26,0.00,CLR,,0.00,WeatherDisplay:10.37,2013-07-12 06:56:00,
2013-07-12 03:01:00,71.2,34.6,29.89,NNE,22,0.0,0.0,26,0.00,CLR,,0.00,WeatherDisplay:10.37,2013-07-12 07:01:00,
2013-07-12 03:06:00,71.2,34.6,29.89,NNE,22,0.0,0.0,26,0.00,CLR,,0.00,WeatherDisplay:10.37,2013-07-12 07:06:00,
2013-07-12 03:11:00,71.2,34.6,29.89,NNE,22,0.0,0.0,26,0.00,CLR,,0.00,WeatherDisplay:10.37,2013-07-12 07:11:00,
2013-07-12 03:16:00,71.4,34.7,29.89,NNE,22,0.0,0.0,26,0.00,CLR,,0.00,WeatherDisplay:10.37,2013-07-12 07:16:00,
2013-07-12 03:21:00,71.4,34.7,29.89,NNE,22,0.0,0.0,26,0.00,CLR,,0.00,WeatherDisplay:10.37,2013-07-12 07:21:00,
2013-07-12 03:26:00,71.4,34.7,29.89,NNE,22,2.3,2.3,26,0.00,CLR,,0.00,WeatherDisplay:10.37,2013-07-12 07:26:00,
2013-07-12 03:32:00,71.6,34.9,29.89,North,0,0.0,0.7,26,0.00,CLR,,0.00,WeatherDisplay:10.37,2013-07-12 07:32:00,
2013-07-12 03:37:00,71.6,34.9,29.89,NNE,22,0.0,0.0,26,0.00,CLR,,0.00,WeatherDisplay:10.37,2013-07-12 07:37:00,
2013-07-12 03:42:00,71.6,34.9,29.90,NNE,22,0.0,0.0,26,0.00,CLR,,0.00,WeatherDisplay:10.37,2013-07-12 07:42:00,
2013-07-12 03:47:00,71.6,34.9,29.90,NNE,22,1.2,0.0,26,0.00,CLR,,0.00,WeatherDisplay:10.37,2013-07-12 07:47:00,
2013-07-12 03:52:00,71.6,34.9,29.90,NE,45,2.3,2.3,26,0.00,CLR,,0.00,WeatherDisplay:10.37,2013-07-12 07:52:00,
2013-07-12 03:57:00,71.6,34.9,29.90,North,0,1.2,1.6,26,0.00,CLR,,0.00,WeatherDisplay:10.37,2013-07-12 07:57:00,
2013-07-12 04:02:00,71.6,34.9,29.90,NE,45,3.5,3.5,26,0.00,CLR,,0.00,WeatherDisplay:10.37,2013-07-12 08:02:00,
2013-07-12 04:07:00,71.4,34.7,29.91,NE,45,2.3,2.3,26,0.00,CLR,,0.00,WeatherDisplay:10.37,2013-07-12 08:07:00,
2013-07-12 04:12:00,71.4,34.7,29.91,NE,45,1.2,1.2,26,0.00,CLR,,0.00,WeatherDisplay:10.37,2013-07-12 08:12:00,
2013-07-12 04:17:00,71.4,34.7,29.91,NE,45,2.3,2.3,26,0.00,CLR,,0.00,WeatherDisplay:10.37,2013-07-12 08:17:00,
2013-07-12 04:22:00,71.4,34.7,29.91,North,0,2.3,2.3,26,0.00,CLR,,0.00,WeatherDisplay:10.37,2013-07-12 08:22:00,
2013-07-12 04:27:00,71.6,34.9,29.92,North,0,3.5,3.5,26,0.00,CLR,,0.00,WeatherDisplay:10.37,2013-07-12 08:27:00,
2013-07-12 04:32:00,71.4,34.7,29.92,NE,45,2.3,2.3,26,0.00,CLR,,0.00,WeatherDisplay:10.37,2013-07-12 08:32:00,
2013-07-12 04:37:00,71.4,34.7,29.92,North,0,1.2,1.2,26,0.00,CLR,,0.00,WeatherDisplay:10.37,2013-07-12 08:37:00,
2013-07-12 04:42:00,71.4,34.7,29.92,North,0,2.3,2.3,26,0.00,CLR,,0.00,WeatherDisplay:10.37,2013-07-12 08:42:00,
2013-07-12 04:47:00,71.6,34.9,29.92,NE,45,3.5,3.5,26,0.00,CLR,,0.00,WeatherDisplay:10.37,2013-07-12 08:47:00,
2013-07-12 04:52:00,71.4,34.7,29.92,NE,45,3.5,3.5,26,0.00,CLR,,0.00,WeatherDisplay:10.37,2013-07-12 08:52:00,
2013-07-12 04:57:00,71.4,34.7,29.92,NNE,22,2.3,2.3,26,0.00,CLR,,0.00,WeatherDisplay:10.37,2013-07-12 08:57:00,
2013-07-12 05:02:00,71.4,34.7,29.92,NNE,22,2.3,2.3,26,0.00,CLR,,0.00,WeatherDisplay:10.37,2013-07-12 09:02:00,
2013-07-12 05:07:00,71.2,34.6,29.92,North,0,2.3,2.3,26,0.00,CLR,,0.00,WeatherDisplay:10.37,2013-07-12 09:07:00,
2013-07-12 05:12:00,71.2,34.6,29.92,NNE,22,5.8,5.8,26,0.00,CLR,,0.00,WeatherDisplay:10.37,2013-07-12 09:12:00,
2013-07-12 05:17:00,71.1,34.4,29.93,NNE,22,2.3,2.4,26,0.00,CLR,,0.00,WeatherDisplay:10.37,2013-07-12 09:17:00,
2013-07-12 05:22:00,71.1,34.4,29.92,North,0,0.0,0.2,26,0.00,CLR,,0.00,WeatherDisplay:10.37,2013-07-12 09:22:00,
2013-07-12 05:27:00,71.1,34.4,29.93,NNE,22,2.3,2.3,26,0.00,CLR,,0.00,WeatherDisplay:10.37,2013-07-12 09:27:00,
2013-07-12 05:32:00,71.1,34.4,29.93,NNW,338,5.8,5.8,26,0.00,CLR,,0.00,WeatherDisplay:10.37,2013-07-12 09:32:00,
2013-07-12 05:37:00,70.9,34.3,29.93,North,0,2.3,2.4,26,0.00,CLR,,0.00,WeatherDisplay:10.37,2013-07-12 09:37:00,
2013-07-12 05:42:00,70.7,34.1,29.93,NNE,22,4.6,4.6,26,0.00,CLR,,0.00,WeatherDisplay:10.37,2013-07-12 09:42:00,
2013-07-12 05:47:00,70.5,34.0,29.94,NNW,338,2.3,2.6,26,0.00,CLR,,0.00,WeatherDisplay:10.37,2013-07-12 09:47:00,
2013-07-12 05:52:00,70.3,33.8,29.94,NW,315,9.2,9.2,26,0.00,CLR,,0.00,WeatherDisplay:10.37,2013-07-12 09:52:00,
2013-07-12 05:57:00,70.2,33.7,29.94,NNW,338,3.5,3.5,26,0.00,CLR,,0.00,WeatherDisplay:10.37,2013-07-12 09:57:00,
2013-07-12 06:02:00,70.2,33.7,29.94,NNE,22,2.3,2.3,26,0.00,CLR,,0.00,WeatherDisplay:10.37,2013-07-12 10:02:00,
2013-07-12 06:07:00,69.8,33.3,29.94,NNW,338,1.2,1.2,26,0.00,CLR,,0.00,WeatherDisplay:10.37,2013-07-12 10:07:00,
2013-07-12 06:12:00,69.8,33.3,29.94,North,0,5.8,5.8,26,0.00,CLR,,0.00,WeatherDisplay:10.37,2013-07-12 10:12:00,
2013-07-12 06:17:00,69.8,34.3,29.94,NW,315,3.5,3.8,27,0.00,CLR,,0.00,WeatherDisplay:10.37,2013-07-12 10:17:00,
2013-07-12 06:22:00,69.8,34.3,29.94,NE,45,4.6,4.6,27,0.00,CLR,,0.00,WeatherDisplay:10.37,2013-07-12 10:22:00,
2013-07-12 06:27:00,69.6,34.1,29.94,NNE,22,1.2,1.6,27,0.00,CLR,,0.00,WeatherDisplay:10.37,2013-07-12 10:27:00,
2013-07-12 06:32:00,69.6,33.2,29.94,NNW,338,2.3,2.3,26,0.00,CLR,,0.00,WeatherDisplay:10.37,2013-07-12 10:32:00,
2013-07-12 06:37:00,69.6,33.2,29.94,North,0,2.3,2.3,26,0.00,CLR,,0.00,WeatherDisplay:10.37,2013-07-12 10:37:00,
2013-07-12 06:42:00,69.4,33.0,29.94,North,0,4.6,4.6,26,0.00,CLR,,0.00,WeatherDisplay:10.37,2013-07-12 10:42:00,
2013-07-12 06:47:00,69.4,33.0,29.95,NNE,22,4.6,4.6,26,0.00,CLR,,0.00,WeatherDisplay:10.37,2013-07-12 10:47:00,
2013-07-12 06:52:00,69.6,33.2,29.95,East,90,2.3,2.6,26,0.00,CLR,,0.00,WeatherDisplay:10.37,2013-07-12 10:52:00,
2013-07-12 06:57:00,69.6,33.2,29.95,ENE,68,2.3,2.4,26,0.00,CLR,,0.00,WeatherDisplay:10.37,2013-07-12 10:57:00,
2013-07-12 07:02:00,69.8,33.3,29.95,NE,45,3.5,3.5,26,0.00,CLR,,0.00,WeatherDisplay:10.37,2013-07-12 11:02:00,
2013-07-12 07:07:00,69.6,33.2,29.95,East,90,4.6,4.6,26,0.00,CLR,,0.00,WeatherDisplay:10.37,2013-07-12 11:07:00,
2013-07-12 07:12:00,69.6,33.2,29.95,ENE,68,4.6,4.6,26,0.00,CLR,,0.00,WeatherDisplay:10.37,2013-07-12 11:12:00,
2013-07-12 07:17:00,69.6,33.2,29.95,North,0,2.3,2.3,26,0.00,CLR,,0.00,WeatherDisplay:10.37,2013-07-12 11:17:00,
2013-07-12 07:22:00,69.6,33.2,29.95,ENE,68,4.6,4.7,26,0.00,CLR,,0.00,WeatherDisplay:10.37,2013-07-12 11:22:00,
2013-07-12 07:27:00,69.6,33.2,29.95,North,0,4.6,4.6,26,0.00,CLR,,0.00,WeatherDisplay:10.37,2013-07-12 11:27:00,
2013-07-12 07:32:00,69.6,33.2,29.95,NNW,338,2.3,2.4,26,0.00,CLR,,0.00,WeatherDisplay:10.37,2013-07-12 11:32:00,
2013-07-12 07:37:00,69.8,33.3,29.97,NNE,22,2.3,2.3,26,0.00,CLR,,0.00,WeatherDisplay:10.37,2013-07-12 11:37:00,
2013-07-12 07:42:00,69.8,33.3,29.97,ESE,112,4.6,4.6,26,0.00,CLR,,0.00,WeatherDisplay:10.37,2013-07-12 11:42:00,
2013-07-12 07:47:00,69.8,33.3,29.97,ENE,68,6.9,7.4,26,0.00,CLR,,0.00,WeatherDisplay:10.37,2013-07-12 11:47:00,
2013-07-12 07:52:00,69.8,33.3,29.97,North,0,4.6,4.6,26,0.00,CLR,,0.00,WeatherDisplay:10.37,2013-07-12 11:52:00,
2013-07-12 07:57:00,69.8,33.3,29.97,NE,45,3.5,3.5,26,0.00,CLR,,0.00,WeatherDisplay:10.37,2013-07-12 11:57:00,
2013-07-12 08:02:00,69.8,33.3,29.97,NNE,22,4.6,4.6,26,0.00,CLR,,0.00,WeatherDisplay:10.37,2013-07-12 12:02:00,
2013-07-12 08:07:00,70.0,33.5,29.98,NNE,22,6.4,6.4,26,0.00,CLR,,0.00,WeatherDisplay:10.37,2013-07-12 12:07:00,
2013-07-12 08:12:00,70.0,33.5,29.98,NNE,22,4.6,4.6,26,0.00,CLR,,0.00,WeatherDisplay:10.37,2013-07-12 12:12:00,
2013-07-12 08:17:00,70.2,33.7,29.98,ENE,68,4.6,4.6,26,0.00,CLR,,0.00,WeatherDisplay:10.37,2013-07-12 12:17:00,
2013-07-12 08:22:00,70.3,33.8,29.98,North,0,1.2,1.2,26,0.00,CLR,,0.00,WeatherDisplay:10.37,2013-07-12 12:22:00,
2013-07-12 08:27:00,70.5,34.0,29.98,North,0,6.9,6.9,26,0.00,CLR,,0.00,WeatherDisplay:10.37,2013-07-12 12:27:00,
2013-07-12 08:32:00,70.5,34.0,29.99,NE,45,2.3,2.9,26,0.00,CLR,,0.00,WeatherDisplay:10.37,2013-07-12 12:32:00,
2013-07-12 08:37:00,70.7,34.1,29.99,ENE,68,3.8,3.8,26,0.00,CLR,,0.00,WeatherDisplay:10.37,2013-07-12 12:37:00,
2013-07-12 08:42:00,70.9,34.3,29.99,NNE,22,3.5,3.5,26,0.00,CLR,,0.00,WeatherDisplay:10.37,2013-07-12 12:42:00,
2013-07-12 08:47:00,70.9,34.3,29.99,NE,45,3.5,3.5,26,0.00,CLR,,0.00,WeatherDisplay:10.37,2013-07-12 12:47:00,
2013-07-12 08:52:00,70.9,34.3,29.99,East,90,2.3,2.3,26,0.00,CLR,,0.00,WeatherDisplay:10.37,2013-07-12 12:52:00,
2013-07-12 08:57:00,71.1,34.4,29.99,ENE,68,5.8,5.8,26,0.00,CLR,,0.00,WeatherDisplay:10.37,2013-07-12 12:57:00,
2013-07-12 09:02:00,71.2,33.6,29.99,ENE,68,2.3,2.3,25,0.00,CLR,,0.00,WeatherDisplay:10.37,2013-07-12 13:02:00,
2013-07-12 09:07:00,71.6,33.9,29.99,NNW,338,3.5,3.5,25,0.00,CLR,,0.00,WeatherDisplay:10.37,2013-07-12 13:07:00,
2013-07-12 09:12:00,72.0,34.2,29.99,ENE,68,4.6,4.6,25,0.00,CLR,,0.00,WeatherDisplay:10.37,2013-07-12 13:12:00,
2013-07-12 09:18:00,72.1,34.4,30.00,NNE,22,4.6,4.7,25,0.00,CLR,,0.00,WeatherDisplay:10.37,2013-07-12 13:18:00,
2013-07-12 09:23:00,72.1,34.4,29.99,NE,45,4.6,5.2,25,0.00,CLR,,0.00,WeatherDisplay:10.37,2013-07-12 13:23:00,
2013-07-12 09:28:00,72.5,34.7,29.99,NNE,22,3.5,4.3,25,0.00,CLR,,0.00,WeatherDisplay:10.37,2013-07-12 13:28:00,
2013-07-12 09:33:00,72.7,34.8,29.99,NE,45,3.5,3.5,25,0.00,CLR,,0.00,WeatherDisplay:10.37,2013-07-12 13:33:00,
2013-07-12 09:38:00,72.9,36.0,30.00,North,0,3.5,3.5,26,0.00,CLR,,0.00,WeatherDisplay:10.37,2013-07-12 13:38:00,
2013-07-12 09:43:00,72.9,36.0,30.00,NE,45,8.1,8.1,26,0.00,CLR,,0.00,WeatherDisplay:10.37,2013-07-12 13:43:00,
2013-07-12 09:48:00,72.9,36.0,30.00,NE,45,4.6,4.6,26,0.00,CLR,,0.00,WeatherDisplay:10.37,2013-07-12 13:48:00,
2013-07-12 09:53:00,73.2,36.3,30.00,North,0,4.6,4.6,26,0.00,CLR,,0.00,WeatherDisplay:10.37,2013-07-12 13:53:00,
2013-07-12 09:58:00,73.2,38.1,30.00,SE,135,5.8,6.2,28,0.00,CLR,,0.00,WeatherDisplay:10.37,2013-07-12 13:58:00,
2013-07-12 10:03:00,73.2,39.0,30.00,North,0,6.9,6.9,29,0.00,CLR,,0.00,WeatherDisplay:10.37,2013-07-12 14:03:00,
2013-07-12 10:08:00,73.0,38.9,30.00,NNE,22,1.2,1.4,29,0.00,CLR,,0.00,WeatherDisplay:10.37,2013-07-12 14:08:00,
2013-07-12 10:13:00,73.0,39.8,30.00,NE,45,2.3,2.4,30,0.00,CLR,,0.00,WeatherDisplay:10.37,2013-07-12 14:13:00,
2013-07-12 10:18:00,73.0,39.8,30.00,ENE,68,6.9,7.4,30,0.00,CLR,,0.00,WeatherDisplay:10.37,2013-07-12 14:18:00,
2013-07-12 10:23:00,73.0,40.6,30.00,ENE,68,10.4,10.4,31,0.00,CLR,,0.00,WeatherDisplay:10.37,2013-07-12 14:23:00,
2013-07-12 10:28:00,73.0,41.4,30.00,East,90,5.8,5.8,32,0.00,CLR,,0.00,WeatherDisplay:10.37,2013-07-12 14:28:00,
2013-07-12 10:33:00,73.0,41.4,30.00,NE,45,1.2,1.2,32,0.00,CLR,,0.00,WeatherDisplay:10.37,2013-07-12 14:33:00,
2013-07-12 10:38:00,73.4,42.5,30.00,NNE,22,5.8,6.2,33,0.00,CLR,,0.00,WeatherDisplay:10.37,2013-07-12 14:38:00,
2013-07-12 10:43:00,73.8,43.6,30.02,East,90,2.3,2.3,34,0.00,CLR,,0.00,WeatherDisplay:10.37,2013-07-12 14:43:00,
2013-07-12 10:48:00,73.4,44.8,30.02,NE,45,5.8,5.8,36,0.00,CLR,,0.00,WeatherDisplay:10.37,2013-07-12 14:48:00,
2013-07-12 10:53:00,73.2,44.7,30.02,North,0,3.5,3.5,36,0.00,CLR,,0.00,WeatherDisplay:10.37,2013-07-12 14:53:00,
2013-07-12 10:58:00,73.2,45.4,30.02,North,0,4.6,4.6,37,0.00,CLR,,0.00,WeatherDisplay:10.37,2013-07-12 14:58:00,
2013-07-12 11:03:00,73.0,45.2,30.02,SE,135,2.3,2.3,37,0.00,CLR,,0.00,WeatherDisplay:10.37,2013-07-12 15:03:00,
2013-07-12 11:08:00,73.0,45.2,30.02,East,90,6.9,6.9,37,0.00,CLR,,0.00,WeatherDisplay:10.37,2013-07-12 15:08:00,
2013-07-12 11:13:00,73.0,46.6,30.02,NE,45,6.9,6.9,39,0.00,CLR,,0.00,WeatherDisplay:10.37,2013-07-12 15:13:00,
2013-07-12 11:18:00,73.0,45.9,30.02,North,0,5.8,5.9,38,0.00,CLR,,0.00,WeatherDisplay:10.37,2013-07-12 15:18:00,
2013-07-12 11:23:00,73.0,45.9,30.03,NNW,338,4.6,4.6,38,0.00,CLR,,0.00,WeatherDisplay:10.37,2013-07-12 15:23:00,
2013-07-12 11:28:00,73.0,46.6,30.03,NE,45,1.2,1.2,39,0.00,CLR,,0.00,WeatherDisplay:10.37,2013-07-12 15:28:00,
2013-07-12 11:33:00,73.2,46.8,30.03,NNE,22,3.5,3.5,39,0.00,CLR,,0.00,WeatherDisplay:10.37,2013-07-12 15:33:00,
2013-07-12 11:38:00,73.2,46.8,30.03,NE,45,4.6,5.2,39,0.00,CLR,,0.00,WeatherDisplay:10.37,2013-07-12 15:38:00,
2013-07-12 11:43:00,73.0,47.3,30.03,ENE,68,2.3,2.9,40,0.00,CLR,,0.00,WeatherDisplay:10.37,2013-07-12 15:43:00,
2013-07-12 11:48:00,72.9,47.1,30.03,North,0,6.9,6.9,40,0.00,CLR,,0.00,WeatherDisplay:10.37,2013-07-12 15:48:00,
2013-07-12 11:53:00,72.7,47.0,30.03,NW,315,1.2,1.2,40,0.00,CLR,,0.00,WeatherDisplay:10.37,2013-07-12 15:53:00,
2013-07-12 11:58:00,72.5,46.8,30.03,East,90,2.3,2.3,40,0.00,CLR,,0.00,WeatherDisplay:10.37,2013-07-12 15:58:00,
2013-07-12 12:03:00,72.5,46.8,30.03,NNW,338,5.8,5.8,40,0.00,CLR,,0.00,WeatherDisplay:10.37,2013-07-12 16:03:00,
2013-07-12 12:08:00,72.1,46.5,30.03,NNE,22,5.8,5.8,40,0.00,CLR,,0.00,WeatherDisplay:10.37,2013-07-12 16:08:00,
2013-07-12 12:13:00,72.1,46.5,30.03,North,0,6.9,6.9,40,0.00,CLR,,0.00,WeatherDisplay:10.37,2013-07-12 16:13:00,
2013-07-12 12:18:00,72.0,46.3,30.03,NW,315,5.8,5.8,40,0.00,CLR,,0.00,WeatherDisplay:10.37,2013-07-12 16:18:00,
2013-07-12 12:23:00,72.0,46.3,30.03,ENE,68,8.1,8.1,40,0.00,CLR,,0.00,WeatherDisplay:10.37,2013-07-12 16:23:00,
2013-07-12 12:28:00,71.6,46.0,30.03,NE,45,4.6,4.6,40,0.00,CLR,,0.00,WeatherDisplay:10.37,2013-07-12 16:28:00,
2013-07-12 12:33:00,71.1,45.5,30.03,NNE,22,4.6,4.6,40,0.00,CLR,,0.00,WeatherDisplay:10.37,2013-07-12 16:33:00,
2013-07-12 12:38:00,70.9,44.7,30.03,East,90,4.6,4.6,39,0.00,CLR,,0.00,WeatherDisplay:10.37,2013-07-12 16:38:00,
2013-07-12 12:43:00,70.9,44.7,30.03,NNE,22,5.8,5.8,39,0.00,CLR,,0.00,WeatherDisplay:10.37,2013-07-12 16:43:00,
2013-07-12 12:48:00,70.9,44.7,30.03,NE,45,4.6,4.7,39,0.00,CLR,,0.00,WeatherDisplay:10.37,2013-07-12 16:48:00,
2013-07-12 12:53:00,70.9,44.7,30.03,North,0,9.2,9.2,39,0.00,CLR,,0.00,WeatherDisplay:10.37,2013-07-12 16:53:00,
2013-07-12 12:59:00,71.2,44.3,30.03,NE,45,4.6,4.7,38,0.00,CLR,,0.00,WeatherDisplay:10.37,2013-07-12 16:59:00,
2013-07-12 13:04:00,71.4,45.2,30.03,NNE,22,3.5,3.5,39,0.00,CLR,,0.00,WeatherDisplay:10.37,2013-07-12 17:04:00,
2013-07-12 13:09:00,71.2,45.0,30.03,NNW,338,5.8,5.8,39,0.00,CLR,,0.00,WeatherDisplay:10.37,2013-07-12 17:09:00,
2013-07-12 13:14:00,71.2,45.7,30.03,NW,315,4.6,4.6,40,0.00,CLR,,0.00,WeatherDisplay:10.37,2013-07-12 17:14:00,
2013-07-12 13:19:00,70.9,45.3,30.03,North,0,3.5,3.5,40,0.00,CLR,,0.00,WeatherDisplay:10.37,2013-07-12 17:19:00,
2013-07-12 13:24:00,70.9,45.3,30.03,NW,315,3.5,3.8,40,0.00,CLR,,0.00,WeatherDisplay:10.37,2013-07-12 17:24:00,
2013-07-12 13:29:00,70.9,45.3,30.03,NE,45,5.8,6.9,40,0.00,CLR,,0.00,WeatherDisplay:10.37,2013-07-12 17:29:00,
2013-07-12 13:34:00,71.2,46.3,30.03,NE,45,8.1,8.1,41,0.00,CLR,,0.00,WeatherDisplay:10.37,2013-07-12 17:34:00,
2013-07-12 13:40:00,71.2,46.3,30.03,NE,44,6.0,8.0,41,0.00,CLR,,0.00,WeatherDisplay:10.37,2013-07-12 17:40:00,
2013-07-12 13:45:00,71.2,47.0,30.03,NE,45,4.6,4.6,42,0.00,CLR,,0.00,WeatherDisplay:10.37,2013-07-12 17:45:00,
2013-07-12 13:50:00,71.3,47.0,30.03,NNE,27,5.0,7.0,42,0.00,CLR,,0.00,WeatherDisplay:10.37,2013-07-12 17:50:00,
2013-07-12 13:55:00,71.2,48.2,30.03,NE,45,6.9,6.9,44,0.00,CLR,,0.00,WeatherDisplay:10.37,2013-07-12 17:55:00,
2013-07-12 14:00:00,71.1,48.0,30.03,North,0,4.6,9.2,44,0.00,CLR,,0.00,WeatherDisplay:10.37,2013-07-12 18:00:00,
2013-07-12 14:07:00,71.1,49.2,30.03,NNW,338,9.2,9.2,46,0.00,CLR,,0.00,WeatherDisplay:10.37,2013-07-12 18:07:00,
2013-07-12 14:12:00,70.9,49.1,30.03,East,90,8.1,8.5,46,0.00,CLR,,0.00,WeatherDisplay:10.37,2013-07-12 18:12:00,
2013-07-12 14:17:00,70.7,48.9,30.03,NNW,338,4.6,4.6,46,0.00,CLR,,0.00,WeatherDisplay:10.37,2013-07-12 18:17:00,
2013-07-12 14:22:00,70.5,48.7,30.03,NNE,22,3.5,3.5,46,0.00,CLR,,0.00,WeatherDisplay:10.37,2013-07-12 18:22:00,
2013-07-12 14:27:00,70.7,48.9,30.05,NE,45,4.6,4.7,46,0.00,CLR,,0.00,WeatherDisplay:10.37,2013-07-12 18:27:00,
2013-07-12 14:34:00,70.5,48.7,30.05,North,0,3.5,4.0,46,0.00,CLR,,0.00,WeatherDisplay:10.37,2013-07-12 18:34:00,
2013-07-12 14:39:00,70.5,48.1,30.06,NE,45,4.6,4.6,45,0.00,CLR,,0.00,WeatherDisplay:10.37,2013-07-12 18:39:00,
2013-07-12 14:44:00,70.5,48.7,30.05,NE,45,3.5,3.5,46,0.00,CLR,,0.00,WeatherDisplay:10.37,2013-07-12 18:44:00,
2013-07-12 14:49:00,70.3,48.6,30.05,ESE,112,4.6,4.7,46,0.00,CLR,,0.00,WeatherDisplay:10.37,2013-07-12 18:49:00,
2013-07-12 14:54:00,70.3,48.6,30.06,NW,315,4.6,4.7,46,0.00,CLR,,0.00,WeatherDisplay:10.37,2013-07-12 18:54:00,
2013-07-12 14:59:00,70.5,48.7,30.06,NNE,22,4.6,4.6,46,0.00,CLR,,0.00,WeatherDisplay:10.37,2013-07-12 18:59:00,
2013-07-12 15:04:00,70.7,48.9,30.06,NW,315,2.3,2.4,46,0.00,CLR,,0.00,WeatherDisplay:10.37,2013-07-12 19:04:00,
2013-07-12 15:09:00,70.9,49.1,30.06,NNW,338,1.2,1.2,46,0.00,CLR,,0.00,WeatherDisplay:10.37,2013-07-12 19:09:00,
2013-07-12 15:14:00,71.2,49.4,30.06,ESE,112,4.6,4.6,46,0.00,CLR,,0.00,WeatherDisplay:10.37,2013-07-12 19:14:00,
2013-07-12 15:19:00,71.8,50.5,30.06,NNW,338,5.8,5.8,47,0.00,CLR,,0.00,WeatherDisplay:10.37,2013-07-12 19:19:00,
2013-07-12 15:24:00,72.3,51.5,30.05,SW,225,6.9,6.9,48,0.00,CLR,,0.00,WeatherDisplay:10.37,2013-07-12 19:24:00,
2013-07-12 15:30:00,72.7,51.9,30.05,NNE,12,8.0,8.0,48,0.00,CLR,,0.00,WeatherDisplay:10.37,2013-07-12 19:30:00,
2013-07-12 15:35:00,72.9,53.1,30.05,NNE,22,5.8,5.8,50,0.00,CLR,,0.00,WeatherDisplay:10.37,2013-07-12 19:35:00,
2013-07-12 15:40:00,72.8,52.5,30.05,NNE,30,6.0,6.0,49,0.00,CLR,,0.00,WeatherDisplay:10.37,2013-07-12 19:40:00,
2013-07-12 15:45:00,72.3,52.6,30.06,NNE,22,4.6,4.6,50,0.00,CLR,,0.00,WeatherDisplay:10.37,2013-07-12 19:45:00,
2013-07-12 15:50:00,72.0,52.3,30.06,NNW,338,5.8,5.8,50,0.00,CLR,,0.00,WeatherDisplay:10.37,2013-07-12 19:50:00,
2013-07-12 15:55:00,71.8,51.6,30.06,NE,45,8.1,8.1,49,0.00,CLR,,0.00,WeatherDisplay:10.37,2013-07-12 19:55:00,
2013-07-12 16:00:00,71.4,51.3,30.06,North,0,3.5,3.5,49,0.00,CLR,,0.00,WeatherDisplay:10.37,2013-07-12 20:00:00,
2013-07-12 16:05:00,71.2,51.1,30.07,ENE,68,2.3,2.9,49,0.00,CLR,,0.00,WeatherDisplay:10.37,2013-07-12 20:05:00,
2013-07-12 16:10:00,71.1,50.4,30.06,NNW,338,1.2,1.2,48,0.00,CLR,,0.00,WeatherDisplay:10.37,2013-07-12 20:10:00,
2013-07-12 16:15:00,71.2,50.5,30.06,NW,315,3.5,3.5,48,0.00,CLR,,0.00,WeatherDisplay:10.37,2013-07-12 20:15:00,
2013-07-12 16:20:00,71.1,50.4,30.06,East,90,5.8,5.8,48,0.00,CLR,,0.00,WeatherDisplay:10.37,2013-07-12 20:20:00,
2013-07-12 16:26:00,70.9,49.6,30.06,North,0,8.1,8.1,47,0.00,CLR,,0.00,WeatherDisplay:10.37,2013-07-12 20:26:00,
2013-07-12 16:31:00,70.7,49.5,30.06,North,0,4.6,4.7,47,0.00,CLR,,0.00,WeatherDisplay:10.37,2013-07-12 20:31:00,
2013-07-12 16:37:00,70.7,49.5,30.06,North,0,3.5,3.5,47,0.00,CLR,,0.00,WeatherDisplay:10.37,2013-07-12 20:37:00,
2013-07-12 16:42:00,70.5,49.3,30.06,ENE,68,5.8,6.2,47,0.00,CLR,,0.00,WeatherDisplay:10.37,2013-07-12 20:42:00,
2013-07-12 16:48:00,70.2,49.0,30.07,ENE,68,4.6,4.6,47,0.00,CLR,,0.00,WeatherDisplay:10.37,2013-07-12 20:48:00,
2013-07-12 16:53:00,70.2,49.0,30.07,NNE,22,3.5,3.6,47,0.00,CLR,,0.00,WeatherDisplay:10.37,2013-07-12 20:53:00,
2013-07-12 16:58:00,70.2,48.4,30.07,ENE,68,2.3,2.6,46,0.00,CLR,,0.00,WeatherDisplay:10.37,2013-07-12 20:58:00,
2013-07-12 17:03:00,70.2,48.4,30.07,East,90,1.2,1.4,46,0.00,CLR,,0.00,WeatherDisplay:10.37,2013-07-12 21:03:00,
2013-07-12 17:08:00,70.3,48.6,30.07,NE,45,2.3,2.3,46,0.00,CLR,,0.00,WeatherDisplay:10.37,2013-07-12 21:08:00,
2013-07-12 17:13:00,70.7,48.9,30.08,NNE,22,2.3,2.3,46,0.00,CLR,,0.00,WeatherDisplay:10.37,2013-07-12 21:13:00,
2013-07-12 17:18:00,70.9,49.1,30.07,ENE,68,4.6,4.6,46,0.00,CLR,,0.00,WeatherDisplay:10.37,2013-07-12 21:18:00,
2013-07-12 17:24:00,71.1,49.2,30.08,ENE,68,4.6,4.7,46,0.00,CLR,,0.00,WeatherDisplay:10.37,2013-07-12 21:24:00,
2013-07-12 17:29:00,71.1,49.8,30.08,ENE,68,5.8,5.8,47,0.00,CLR,,0.00,WeatherDisplay:10.37,2013-07-12 21:29:00,
2013-07-12 17:34:00,70.9,49.6,30.07,North,0,9.2,9.2,47,0.00,CLR,,0.00,WeatherDisplay:10.37,2013-07-12 21:34:00,
2013-07-12 17:39:00,70.7,49.5,30.07,NE,45,4.6,4.9,47,0.00,CLR,,0.00,WeatherDisplay:10.37,2013-07-12 21:39:00,
2013-07-12 17:44:00,70.5,49.3,30.08,NNW,338,3.5,3.8,47,0.00,CLR,,0.00,WeatherDisplay:10.37,2013-07-12 21:44:00,
2013-07-12 17:49:00,70.3,49.1,30.07,NNE,22,4.6,4.6,47,0.00,CLR,,0.00,WeatherDisplay:10.37,2013-07-12 21:49:00,
2013-07-12 17:54:00,70.2,49.0,30.07,NE,45,5.8,5.8,47,0.00,CLR,,0.00,WeatherDisplay:10.37,2013-07-12 21:54:00,
2013-07-12 18:00:00,70.0,48.8,30.07,NE,38,5.0,7.0,47,0.00,CLR,,0.00,WeatherDisplay:10.37,2013-07-12 22:00:00,
2013-07-12 18:05:00,69.8,48.1,30.07,ESE,112,6.9,6.9,46,0.00,CLR,,0.00,WeatherDisplay:10.37,2013-07-12 22:05:00,
2013-07-12 18:10:00,69.8,48.1,30.07,North,0,6.9,6.9,46,0.00,CLR,,0.00,WeatherDisplay:10.37,2013-07-12 22:10:00,
2013-07-12 18:16:00,69.6,47.9,30.07,NNE,22,5.8,5.8,46,0.00,CLR,,0.00,WeatherDisplay:10.37,2013-07-12 22:16:00,
2013-07-12 18:21:00,69.6,47.9,30.08,ENE,68,4.3,4.3,46,0.00,CLR,,0.00,WeatherDisplay:10.37,2013-07-12 22:21:00,
2013-07-12 18:26:00,69.4,47.8,30.08,East,90,3.5,3.5,46,0.00,CLR,,0.00,WeatherDisplay:10.37,2013-07-12 22:26:00,
2013-07-12 18:31:00,69.1,46.8,30.08,NNE,22,4.6,4.6,45,0.00,CLR,,0.00,WeatherDisplay:10.37,2013-07-12 22:31:00,
2013-07-12 18:37:00,68.9,46.7,30.08,NE,45,2.3,2.4,45,0.00,CLR,,0.00,WeatherDisplay:10.37,2013-07-12 22:37:00,
2013-07-12 18:43:00,68.9,46.7,30.08,ESE,112,1.2,1.4,45,0.00,CLR,,0.00,WeatherDisplay:10.37,2013-07-12 22:43:00,
2013-07-12 18:48:00,68.7,45.3,30.08,NNW,338,2.3,2.3,43,0.00,CLR,,0.00,WeatherDisplay:10.37,2013-07-12 22:48:00,
2013-07-12 18:53:00,68.5,45.1,30.08,NE,45,4.6,4.6,43,0.00,CLR,,0.00,WeatherDisplay:10.37,2013-07-12 22:53:00,
2013-07-12 18:58:00,68.4,45.0,30.08,ESE,112,3.5,3.5,43,0.00,CLR,,0.00,WeatherDisplay:10.37,2013-07-12 22:58:00,
2013-07-12 19:03:00,68.2,44.8,30.08,NNW,338,2.3,2.3,43,0.00,CLR,,0.00,WeatherDisplay:10.37,2013-07-12 23:03:00,
2013-07-12 19:08:00,68.0,44.7,30.08,SE,135,4.6,5.4,43,0.00,CLR,,0.00,WeatherDisplay:10.37,2013-07-12 23:08:00,
2013-07-12 19:13:00,68.0,44.0,30.08,NE,45,4.6,4.7,42,0.00,CLR,,0.00,WeatherDisplay:10.37,2013-07-12 23:13:00,
2013-07-12 19:19:00,67.6,43.1,30.08,ENE,68,4.6,4.6,41,0.00,CLR,,0.00,WeatherDisplay:10.37,2013-07-12 23:19:00,
2013-07-12 19:24:00,67.6,43.1,30.08,NE,45,3.5,3.6,41,0.00,CLR,,0.00,WeatherDisplay:10.37,2013-07-12 23:24:00,
2013-07-12 19:29:00,67.6,43.1,30.08,NE,45,4.6,4.6,41,0.00,CLR,,0.00,WeatherDisplay:10.37,2013-07-12 23:29:00,
2013-07-12 19:34:00,67.5,42.3,30.10,East,90,3.5,3.6,40,0.00,CLR,,0.00,WeatherDisplay:10.37,2013-07-12 23:34:00,
2013-07-12 19:39:00,67.3,42.1,30.10,ENE,68,1.4,1.4,40,0.00,CLR,,0.00,WeatherDisplay:10.37,2013-07-12 23:39:00,
2013-07-12 19:45:00,67.3,42.1,30.10,NE,45,6.9,6.9,40,0.00,CLR,,0.00,WeatherDisplay:10.37,2013-07-12 23:45:00,
2013-07-12 19:50:00,67.3,41.5,30.10,ESE,112,3.5,3.5,39,0.00,CLR,,0.00,WeatherDisplay:10.37,2013-07-12 23:50:00,
2013-07-12 19:55:00,66.9,41.1,30.10,ENE,68,3.5,5.4,39,0.00,CLR,,0.00,WeatherDisplay:10.37,2013-07-12 23:55:00,
2013-07-12 20:00:00,66.9,41.1,30.10,North,0,3.5,3.5,39,0.00,CLR,,0.00,WeatherDisplay:10.37,2013-07-13 00:00:00,
2013-07-12 20:06:00,66.7,41.0,30.10,ENE,68,3.5,3.5,39,0.00,CLR,,0.00,WeatherDisplay:10.37,2013-07-13 00:06:00,
2013-07-12 20:11:00,66.7,41.0,30.10,NNE,22,0.0,0.5,39,0.00,CLR,,0.00,WeatherDisplay:10.37,2013-07-13 00:11:00,
2013-07-12 20:16:00,66.7,40.3,30.10,East,90,2.3,2.3,38,0.00,CLR,,0.00,WeatherDisplay:10.37,2013-07-13 00:16:00,
2013-07-12 20:22:00,66.7,40.3,30.10,NE,45,1.2,1.2,38,0.00,CLR,,0.00,WeatherDisplay:10.37,2013-07-13 00:22:00,
2013-07-12 20:27:00,66.7,40.3,30.10,NNE,22,2.3,2.3,38,0.00,CLR,,0.00,WeatherDisplay:10.37,2013-07-13 00:27:00,
2013-07-12 20:32:00,66.6,39.5,30.10,ESE,112,3.5,3.5,37,0.00,CLR,,0.00,WeatherDisplay:10.37,2013-07-13 00:32:00,
2013-07-12 20:37:00,66.6,39.5,30.10,North,0,1.2,1.2,37,0.00,CLR,,0.00,WeatherDisplay:10.37,2013-07-13 00:37:00,
2013-07-12 20:43:00,66.6,38.8,30.10,NNE,22,4.6,4.7,36,0.00,CLR,,0.00,WeatherDisplay:10.37,2013-07-13 00:43:00,
2013-07-12 20:48:00,66.6,38.8,30.10,North,0,1.2,1.4,36,0.00,CLR,,0.00,WeatherDisplay:10.37,2013-07-13 00:48:00,
2013-07-12 20:53:00,66.6,38.8,30.10,ENE,68,1.2,1.2,36,0.00,CLR,,0.00,WeatherDisplay:10.37,2013-07-13 00:53:00,
2013-07-12 20:58:00,66.6,38.8,30.10,South,180,0.0,0.0,36,0.00,CLR,,0.00,WeatherDisplay:10.37,2013-07-13 00:58:00,
2013-07-12 21:04:00,66.7,38.9,30.11,SW,225,1.2,1.2,36,0.00,CLR,,0.00,WeatherDisplay:10.37,2013-07-13 01:04:00,
2013-07-12 21:09:00,66.7,38.2,30.11,ENE,68,2.3,2.3,35,0.00,CLR,,0.00,WeatherDisplay:10.37,2013-07-13 01:09:00,
2013-07-12 21:14:00,66.7,38.2,30.11,ENE,68,1.2,1.2,35,0.00,CLR,,0.00,WeatherDisplay:10.37,2013-07-13 01:14:00,
2013-07-12 21:20:00,66.7,37.5,30.11,East,85,2.0,6.0,34,0.00,CLR,,0.00,WeatherDisplay:10.37,2013-07-13 01:20:00,
2013-07-12 21:24:00,66.7,37.5,30.11,ESE,112,4.6,4.6,34,0.00,CLR,,0.00,WeatherDisplay:10.37,2013-07-13 01:24:00,
2013-07-12 21:30:00,66.7,37.5,30.12,ENE,68,2.0,6.0,34,0.00,CLR,,0.00,WeatherDisplay:10.37,2013-07-13 01:30:00,
2013-07-12 21:35:00,66.7,38.2,30.12,ENE,68,1.2,2.0,35,0.00,CLR,,0.00,WeatherDisplay:10.37,2013-07-13 01:35:00,
2013-07-12 21:40:00,66.7,37.5,30.12,East,90,0.0,0.5,34,0.00,CLR,,0.00,WeatherDisplay:10.37,2013-07-13 01:40:00,
2013-07-12 21:45:00,66.7,37.5,30.13,SE,135,4.6,4.7,34,0.00,CLR,,0.00,WeatherDisplay:10.37,2013-07-13 01:45:00,
2013-07-12 21:50:00,66.7,37.5,30.13,NNE,22,2.3,2.4,34,0.00,CLR,,0.00,WeatherDisplay:10.37,2013-07-13 01:50:00,
2013-07-12 21:55:00,66.6,37.3,30.13,North,0,2.3,2.9,34,0.00,CLR,,0.00,WeatherDisplay:10.37,2013-07-13 01:55:00,
2013-07-12 22:00:00,66.6,37.3,30.13,SE,135,3.5,3.5,34,0.00,CLR,,0.00,WeatherDisplay:10.37,2013-07-13 02:00:00,
2013-07-12 22:06:00,66.6,37.3,30.13,NE,45,2.3,2.3,34,0.00,CLR,,0.00,WeatherDisplay:10.37,2013-07-13 02:06:00,
2013-07-12 22:11:00,66.6,37.3,30.13,NNE,22,1.2,1.2,34,0.00,CLR,,0.00,WeatherDisplay:10.37,2013-07-13 02:11:00,
2013-07-12 22:17:00,66.6,36.5,30.13,NNE,22,3.5,3.5,33,0.00,CLR,,0.00,WeatherDisplay:10.37,2013-07-13 02:17:00,
2013-07-12 22:22:00,66.6,36.5,30.13,East,90,1.2,1.6,33,0.00,CLR,,0.00,WeatherDisplay:10.37,2013-07-13 02:22:00,
2013-07-12 22:27:00,66.6,36.5,30.13,ENE,68,1.2,1.6,33,0.00,CLR,,0.00,WeatherDisplay:10.37,2013-07-13 02:27:00,
2013-07-12 22:32:00,66.6,36.5,30.13,NNW,338,1.2,1.2,33,0.00,CLR,,0.00,WeatherDisplay:10.37,2013-07-13 02:32:00,
2013-07-12 22:37:00,66.7,36.7,30.13,ENE,68,1.2,1.2,33,0.00,CLR,,0.00,WeatherDisplay:10.37,2013-07-13 02:37:00,
2013-07-12 22:42:00,66.7,36.7,30.13,East,90,1.2,1.6,33,0.00,CLR,,0.00,WeatherDisplay:10.37,2013-07-13 02:42:00,
2013-07-12 22:49:00,66.7,36.7,30.13,North,0,1.2,1.2,33,0.00,CLR,,0.00,WeatherDisplay:10.37,2013-07-13 02:49:00,
2013-07-12 22:54:00,66.7,35.9,30.13,East,90,1.2,1.4,32,0.00,CLR,,0.00,WeatherDisplay:10.37,2013-07-13 02:54:00,
2013-07-12 22:59:00,66.7,35.9,30.13,ENE,68,0.0,1.8,32,0.00,CLR,,0.00,WeatherDisplay:10.37,2013-07-13 02:59:00,
2013-07-12 23:05:00,66.7,35.9,30.13,North,0,0.0,0.5,32,0.00,CLR,,0.00,WeatherDisplay:10.37,2013-07-13 03:05:00,
2013-07-12 23:10:00,66.7,35.9,30.13,NE,38,2.0,2.0,32,0.00,CLR,,0.00,WeatherDisplay:10.37,2013-07-13 03:10:00,
2013-07-12 23:15:00,66.7,35.9,30.13,ESE,112,2.3,2.3,32,0.00,CLR,,0.00,WeatherDisplay:10.37,2013-07-13 03:15:00,
2013-07-12 23:20:00,66.7,35.9,30.13,NE,45,2.3,2.4,32,0.00,CLR,,0.00,WeatherDisplay:10.37,2013-07-13 03:20:00,
2013-07-12 23:25:00,66.7,35.9,30.13,East,90,2.3,2.3,32,0.00,CLR,,0.00,WeatherDisplay:10.37,2013-07-13 03:25:00,
2013-07-12 23:30:00,66.7,35.1,30.13,East,90,1.2,1.2,31,0.00,CLR,,0.00,WeatherDisplay:10.37,2013-07-13 03:30:00,
2013-07-12 23:35:00,66.7,35.1,30.13,ESE,112,2.3,2.4,31,0.00,CLR,,0.00,WeatherDisplay:10.37,2013-07-13 03:35:00,
2013-07-12 23:40:00,66.7,35.1,30.13,East,90,2.3,2.3,31,0.00,CLR,,0.00,WeatherDisplay:10.37,2013-07-13 03:40:00,
2013-07-12 23:45:00,66.7,35.1,30.13,East,90,2.3,2.3,31,0.00,CLR,,0.00,WeatherDisplay:10.37,2013-07-13 03:45:00,
2013-07-12 23:51:00,66.7,35.1,30.13,East,90,1.2,1.2,31,0.00,CLR,,0.00,WeatherDisplay:10.37,2013-07-13 03:51:00,
2013-07-12 23:56:00,66.9,35.3,30.13,ESE,112,1.2,1.6,31,0.00,CLR,,0.00,WeatherDisplay:10.37,2013-07-13 03:56:00,